Date,TemperatureHighF,TemperatureAvgF,TemperatureLowF,DewpointHighF,DewpointAvgF,DewpointLowF,HumidityHigh,HumidityAvg,HumidityLow,PressureMaxIn,PressureMinIn,WindSpeedMaxMPH,WindSpeedAvgMPH,GustSpeedMaxMPH,PrecipitationSumIn
2013-2-1,-1,-12,-25,-8,-20,-33,77,68,60,0.00,40.00,15,7,17,0.00
2013-2-2,5,-3,-15,1,-9,-22,82,75,67,0.00,40.00,15,7,20,0.00
2013-2-3,8,2,-3,-2,-6,-9,82,72,57,0.00,40.00,14,8,20,0.00
2013-2-4,22,5,-7,18,-2,-15,89,72,60,0.00,40.00,25,11,31,0.00
2013-2-5,23,11,4,21,6,-2,91,80,70,0.00,40.00,21,10,27,0.00
2013-2-6,25,18,8,19,13,1,91,81,73,0.00,40.00,22,10,28,0.00
2013-2-7,25,17,2,19,14,-4,91,85,74,0.00,40.00,11,6,14,0.00
2013-2-8,23,13,-2,16,8,-8,89,80,65,0.00,40.00,26,2,34,0.00
2013-2-9,29,27,20,27,24,16,97,92,86,0.00,40.00,21,13,26,0.00
2013-2-10,27,26,24,27,25,23,98,97,96,0.00,40.00,27,16,34,0.25
2013-2-11,17,14,7,14,10,3,91,85,81,0.00,40.00,28,15,33,0.00
2013-2-12,25,18,13,19,14,10,87,82,69,0.00,40.00,17,10,19,0.00
2013-2-13,31,24,17,25,21,16,93,87,75,0.00,40.00,11,5,14,0.00
2013-2-14,17,10,3,16,6,-2,92,84,76,0.00,40.00,15,-19,17,0.00
2013-2-15,12,3,-4,9,-2,-9,86,80,76,0.00,40.00,7,-6,10,0.00
2013-2-16,16,6,-2,12,1,-6,83,79,70,0.00,40.00,16,8,18,0.00
2013-2-17,30,28,25,25,24,21,88,85,80,0.00,40.00,26,18,34,0.00
2013-2-18,29,11,-3,27,8,-9,95,84,77,0.00,40.00,35,22,44,0.01
2013-2-19,-3,-11,-19,-8,-18,-27,77,70,65,0.00,40.00,29,19,34,0.01
2013-2-20,11,-7,-21,-2,-16,-29,72,66,54,0.00,40.00,14,6,16,0.00
2013-2-21,18,10,2,5,-2,-9,71,57,47,0.00,40.00,18,10,22,0.00
2013-2-22,20,18,12,16,14,3,89,86,71,0.00,40.00,10,7,12,0.01
2013-2-23,23,18,9,21,15,5,92,89,86,0.00,40.00,4,2,6,0.01
2013-2-24,26,16,1,16,7,-4,89,69,47,0.00,40.00,11,-7,14,0.00
2013-2-25,26,20,17,23,18,12,93,91,79,0.00,40.00,14,7,16,0.00
2013-2-26,22,15,9,21,12,5,94,89,86,0.00,40.00,9,4,10,0.00
2013-2-27,18,11,5,16,8,1,92,87,83,0.00,40.00,10,4,12,0.00
2013-2-28,23,20,15,19,16,12,91,81,73,0.00,40.00,13,8,16,0.00